This is the latest recevied weather packets stored in our database for station/object W4MLN-1. If no packets are shown the sender has not sent any weather packets the latest 10 day(s).
| Time | Temp. | Humidity | Pressure | Rain* | Wind** | Luminosity | Snow |
|---|---|---|---|---|---|---|---|
| 1778006621 | 21.11° C | 43% | 1014.1 hPa | 0 mm | - | 955 W/m² | - |
| 1778006322 | 21.11° C | 42% | 1014.3 hPa | 0 mm | - | 990 W/m² | - |
| 1778006021 | 21.11° C | 43% | 1014.5 hPa | 0 mm | - | 990 W/m² | - |
| 1778005722 | 20.56° C | 43% | 1014.4 hPa | 0 mm | - | 880 W/m² | - |
| 1778005421 | 20.56° C | 45% | 1014.5 hPa | 0 mm | - | 738 W/m² | - |
| 1778005122 | 20.56° C | 46% | 1014.5 hPa | 0 mm | - | 771 W/m² | - |
| 1778004821 | 20.56° C | 44% | 1014.6 hPa | 0 mm | - | 633 W/m² | - |
| 1778004519 | 20.56° C | 44% | 1014.7 hPa | 0 mm | - | 759 W/m² | - |
| 1778004219 | 20.56° C | 45% | 1014.7 hPa | 0 mm | - | 770 W/m² | - |
| 1778003919 | 20.56° C | 44% | 1014.7 hPa | 0 mm | - | 954 W/m² | - |
| 1778003616 | 20.56° C | 45% | 1014.8 hPa | 0 mm | - | 726 W/m² | - |
| 1778003316 | 21.11° C | 45% | 1015 hPa | 0 mm | - | 349 W/m² | - |
| 1778003016 | 21.67° C | 46% | 1014.9 hPa | 0 mm | - | 596 W/m² | - |
| 1778002716 | 21.67° C | 47% | 1014.9 hPa | 0 mm | - | 805 W/m² | - |
| 1778002416 | 22.22° C | 45% | 1014.8 hPa | 0 mm | - | 760 W/m² | - |
| 1778002116 | 22.22° C | 46% | 1014.8 hPa | 0 mm | - | 1009 W/m² | - |
| 1778001816 | 22.22° C | 45% | 1014.7 hPa | 0 mm | - | 943 W/m² | - |
| 1778001516 | 21.67° C | 50% | 1014.7 hPa | 0 mm | - | 974 W/m² | - |
| 1778001213 | 21.11° C | 48% | 1014.8 hPa | 0 mm | - | 985 W/m² | - |
| 1778000911 | 20.56° C | 48% | 1014.8 hPa | 0 mm | - | 824 W/m² | - |
| 1778000610 | 20.56° C | 47% | 1014.8 hPa | 0 mm | - | 535 W/m² | - |
| 1778000311 | 20.56° C | 45% | 1014.9 hPa | 0 mm | - | 339 W/m² | - |
| 1778000012 | 20.56° C | 45% | 1014.9 hPa | 0 mm | - | 514 W/m² | - |
| 1777999711 | 21.11° C | 42% | 1014.9 hPa | 0 mm | - | 802 W/m² | - |
| 1777999412 | 21.11° C | 46% | 1015.1 hPa | 0 mm | - | 406 W/m² | - |
* Rain latest hour (hover to see other rain measurements)
** Current wind speed in m/s (hover to see current wind gust speed)